TimeMST,TemperatureF,Dew PointF,Humidity,Sea Level PressureIn,VisibilityMPH,Wind Direction,Wind SpeedMPH,Gust SpeedMPH,PrecipitationIn,Events,Conditions,WindDirDegrees,DateUTC
12:53 AM,15.1,10.0,80,29.75,10.0,South,5.8,-,N/A,,Clear,190,2012-12-17 07:53:00
1:53 AM,16.0,10.9,81,29.72,10.0,South,8.1,-,N/A,,Clear,170,2012-12-17 08:53:00
2:53 AM,17.1,10.9,77,29.69,10.0,South,11.5,-,N/A,,Clear,170,2012-12-17 09:53:00
3:53 AM,16.0,10.0,77,29.66,10.0,South,8.1,-,N/A,,Clear,170,2012-12-17 10:53:00
4:53 AM,16.0,10.0,77,29.65,10.0,SSE,6.9,-,N/A,,Clear,160,2012-12-17 11:53:00
5:53 AM,16.0,9.0,74,29.61,10.0,South,11.5,-,N/A,,Scattered Clouds,170,2012-12-17 12:53:00
6:53 AM,19.0,12.0,74,29.60,10.0,SE,10.4,-,N/A,,Mostly Cloudy,140,2012-12-17 13:53:00
7:53 AM,21.0,14.0,74,29.56,10.0,ESE,4.6,-,N/A,,Overcast,120,2012-12-17 14:53:00
8:53 AM,28.9,18.0,64,29.51,10.0,SSW,21.9,27.6,N/A,,Overcast,200,2012-12-17 15:53:00
9:53 AM,33.1,19.0,56,29.50,10.0,SSW,15.0,-,N/A,,Overcast,200,2012-12-17 16:53:00
10:53 AM,37.0,21.0,52,29.48,10.0,SSW,13.8,-,N/A,,Scattered Clouds,210,2012-12-17 17:53:00
11:53 AM,41.0,19.9,43,29.44,10.0,SSW,15.0,-,N/A,,Mostly Cloudy,210,2012-12-17 18:53:00
12:53 PM,43.0,19.9,40,29.39,10.0,SW,13.8,-,N/A,,Scattered Clouds,220,2012-12-17 19:53:00
1:53 PM,46.0,19.9,35,29.39,10.0,WSW,11.5,-,N/A,,Partly Cloudy,250,2012-12-17 20:53:00
2:53 PM,43.0,19.0,38,29.39,10.0,North,4.6,-,N/A,,Mostly Cloudy,350,2012-12-17 21:53:00
5:53 PM,34.0,28.9,82,29.49,8.0,West,10.4,-,0.00,Snow,Light Snow,260,2012-12-18 00:53:00
6:53 PM,35.1,27.0,72,29.50,10.0,NW,12.7,-,0.00,,Overcast,310,2012-12-18 01:53:00
7:53 PM,32.0,30.0,92,29.52,3.0,WNW,17.3,-,0.00,Snow,Light Snow,300,2012-12-18 02:53:00
8:53 PM,30.0,27.0,88,29.48,10.0,WSW,8.1,-,0.00,,Mostly Cloudy,250,2012-12-18 03:53:00
9:53 PM,30.9,27.0,85,29.50,10.0,WSW,12.7,-,N/A,,Partly Cloudy,250,2012-12-18 04:53:00
10:53 PM,33.1,27.0,78,29.52,10.0,West,13.8,23.0,N/A,,Overcast,260,2012-12-18 05:53:00
11:53 PM,28.9,24.1,82,29.54,10.0,WNW,9.2,-,N/A,,Scattered Clouds,300,2012-12-18 06:53:00